Showing default

QIANFAN-63, 62793

Orbit data source: Space-Track

QIANFAN-63, 62793 is a Chinese payload satellite in LEO that was launched on Thu, 23 Jan 2025 UTC via a CHANG ZHENG 6A launch vehicle from the Taiyaun Space Center, China (TSC). Payload-class satellites include a variety of spacecraft equipped with specific instruments for various scientific and technological missions. These include communications satellites like Starlink; space stations such as the ISS; scientific satellites like the Hubble; Earth observation satellites from companies like Planet Labs, Umbra, and HawkEye 360; GPS; miniature CubeSats for education and research; and military/defense satellites.

Loading next visibility...
Identifier
62793, 2025-016J
Orbit
LEO
Country
Flag of CNCN / PRC
Related business
Manufacturer
SECM
Mission
Operational Commercial Communications
Bus & Motor
QIANFAN, Unknown motor
Mass
267 kg wet, ~267 kg dry
Launch date (UTC)
2025-01-23 (1 year ago)
Launch vehicle
CHANG ZHENG 6A
Launch site
Taiyaun Space Center, China (TSC)
Object type
Payload
Rocket body
Debris
Shape & HBR
Box + 1 Pan, 1.2 m
Radar Cross Section
13.200 m², Large (>1 m²)

Expand to show TLE details & history
Last TLE update: 7 hours ago

TLE from 7 hours ago
0 QIANFAN-63
1 62793U 25016J   26035.83431318  .00000112  00000-0  15527-3 0  9995
2 62793  88.9737  97.4732 0016409 185.1399 174.9586 13.50991944 54575
Epoch: 2026-02-04T20:01Z
TLE epoch observation values (Epoch: 2026-02-04T20:01:24.658Z)
Latitude
-0.00007°
Longitude
22.12525°
Altitude
1,083.739 km
Speed
7.304 km/s
True Right ascension
06h 29m 53s
True Declination
0° 00' 00"
Sunlit
Object was in full shadow at epoch
Visualization orbit readout
Latitude
Unknown
Longitude
Unknown
Altitude
Unknown
Speed
Unknown
Apparent Right ascension
Unknown
Apparent Declination
Unknown
Sunlit
N/A
Visualization observer readout
Local Sidereal Time
04:58:31
Azimuth
Unknown
Elevation
Unknown
Doppler factor
Unknown
Orbital elements
Apogee altitude
1,077.877 km
Perigee altitude
1,053.448 km
Semi-major axis
7,443.799 km
Eccentricity
0.00164
Inclination
88.9737°
RAAN
97.4732°
Arg. of periapsis
185.1399°
True anomaly
174.97509°
Mean anomaly
174.9586°
Eccentric anomaly
174.96685°
Mean motion
3.37949 °/min
Orbital period
106.52 mins
BSTAR
0.00015527
Loading maneuver chart data...
Computing Atmospheric mass density...
Loading historical data...
Loading historical data...
Loading historical data...
Loading historical data...
Loading historical data...
Loading historical data...
Loading historical data...

Documentation

Showing up to 5 results
|